Location: Blandford
(50.8667°N, 2.1667°W)
Time: 03:11:29
(UTC+00:00)

Cosmos 2322 Rocket - Pass Details

Date: 09 April 2020
Orbit: 834 x 849 km, 71.0° (Epoch: 26 May)

Event Time Altitude Azimuth Distance (km) Brightness Sun altitude
Rises 21:33:10 0° 331° (NNW) 3,409 6.7 -22.1°
Reaches altitude 10° 21:36:08 10° 346° (NNW) 2,469 5.5 -22.4°
Maximum altitude 21:40:38 24° 39° (NE) 1,691 3.8 -22.9°
Enters shadow 21:42:52 19° 71° (ENE) 1,907 3.8 -23.1°
